Tracking 32964 objects as of 20-Jan-2026
HD Live streaming from Space Station
objects crossing your sky now

CZ-6A DEB

Track CZ-6A DEB now!
10-day predictions


NORAD ID: 54512
Int'l Code: 2022-151JQ
Perigee: 621.2 km
Apogee: 754.5 km
Inclination: 98.6 °
Period: 98.4 minutes
Semi major axis: 7058 km
RCS: Unknown
Launch date: November 11, 2022
Source: People's Republic of China (PRC)
Launch site: Taiyaun Space Center, China (TSC)

Note: This is SATELLITE DEBRIS
Your satellite tracking list
Your tracking list is empty




NASA's NSSDC Master Catalog

Two Line Element Set (TLE):
1 54512U 22151JQ  26020.10734156  .00013926  00000-0  25037-2 0  9995
2 54512  98.6030  72.8519 0094406  30.6591 330.0080 14.63865790166538
Source of the keplerian elements: AFSPC